Torna al catalogo

USA 426

AttivoMilitareVLEO
NORAD 61649·PAYLOAD·🇺🇸 United States

Lanciato Oct 24, 2024 da Vandenberg Space Force Base

Loading…

Prossimi Passaggi (prossime 24 ore)

TLE

ObsoletoSource: Mike McCants

Epoca: Aug 11, 2026, 20:38 UTC

1 61649U 24192F   26223.86028207 0.00000000  00000-0  00000-0 0    05
2 61649  70.0214 127.1583 0003000 109.4696 250.5304 14.96713330    03

Traccia USA 426 in tempo reale con AllMySat

Download on the App Store